Overview Statistics Trail Chart Weather Telemetry Raw packets
 

This is the latest recevied weather packets stored in our database for station/object EA7URS-13. If no packets are shown the sender has not sent any weather packets the latest 10 day(s).

<< 55 56 57 58 59 60 61 >>
Time Temp. Humidity Pressure Rain* Wind** Luminosity Snow
1788289841 31.11° C 42% 1008.9 hPa 0 mm - 0 W/m² -
1788289540 31.67° C 41% 1008.6 hPa 0 mm - 1 W/m² -
1788289238 31.67° C 41% 1008.6 hPa 0 mm - 1 W/m² -
1788288937 33.33° C 31% 1008.7 hPa 0 mm - 4 W/m² -
1788288636 33.33° C 31% 1008.7 hPa 0 mm - 4 W/m² -
1788288335 33.33° C 30% 1008.4 hPa 0 mm - 7 W/m² -
1788288034 33.33° C 30% 1008.4 hPa 0 mm - 7 W/m² -
1788287733 33.89° C 28% 1008.3 hPa 0 mm - 15 W/m² -
1788287131 33.33° C 38% 1008.2 hPa 0 mm - 25 W/m² -
1788286830 33.33° C 38% 1008.2 hPa 0 mm - 25 W/m² -
1788286548 33.89° C 36% 1008 hPa 0 mm - 32 W/m² -
1788286225 33.89° C 36% 1008 hPa 0 mm - 32 W/m² -
1788285923 34.44° C 33% 1008 hPa 0 mm - 39 W/m² -
1788285622 34.44° C 33% 1008 hPa 0 mm - 39 W/m² -
1788285321 34.44° C 33% 1008 hPa 0 mm - 45 W/m² -
1788285020 34.44° C 33% 1008 hPa 0 mm - 45 W/m² -
1788284719 34.44° C 32% 1007.8 hPa 0 mm - 50 W/m² -
1788284417 34.44° C 32% 1007.8 hPa 0 mm - 50 W/m² -
1788284116 35° C 32% 1007.9 hPa 0 mm - 68 W/m² -
1788283814 35° C 32% 1007.9 hPa 0 mm - 68 W/m² -
1788283513 35.56° C 30% 1007.9 hPa 0 mm - 84 W/m² -
1788283212 35.56° C 30% 1007.9 hPa 0 mm - 84 W/m² -
1788282911 35° C 31% 1008 hPa 0 mm - 104 W/m² -
1788282610 35° C 31% 1008 hPa 0 mm - 104 W/m² -
1788282309 35° C 32% 1008.2 hPa 0 mm - 120 W/m² -

* Rain latest hour (hover to see other rain measurements)
** Current wind speed in m/s (hover to see current wind gust speed)